| time (UTC) | temp C | wind direction | speed KPH | gust KPH | rain 1hr cm | rain 24hr cm | rain mn cm | humidity % | barometer mb |
| 20260509064810 | 11 | 58 | 3.2 | 3.2 | 0.00 | 0.00 | 0.00 | 64 | 1004.8 |
| 20260509064307 | 11 | 32 | 1.6 | 1.6 | 0.00 | 0.00 | 0.00 | 62 | 1004.9 |
| 20260509063805 | 11 | 23 | 0.0 | 1.6 | 0.00 | 0.00 | 0.00 | 60 | 1005.2 |
| 20260509063301 | 11 | 50 | 1.6 | 1.6 | 0.00 | 0.00 | 0.00 | 58 | 1005.1 |
| 20260509062758 | 11 | 13 | 3.2 | 3.2 | 0.00 | 0.00 | 0.00 | 57 | 1005.2 |
| 20260509062255 | 11 | 85 | 3.2 | 3.2 | 0.00 | 0.00 | 0.00 | 54 | 1005.2 |
| 20260509061752 | 11 | 72 | 1.6 | 1.6 | 0.00 | 0.00 | 0.00 | 51 | 1005.0 |
| 20260509061250 | 11 | 48 | 1.6 | 3.2 | 0.00 | 0.00 | 0.00 | 48 | 1005.1 |
| 20260509060747 | 11 | 35 | 1.6 | 1.6 | 0.00 | 0.00 | 0.00 | 44 | 1005.3 |
| 20260509060243 | 11 | 25 | 0.0 | 0.0 | 0.00 | 0.00 | 0.00 | 41 | 1005.3 |
| 20260509055739 | 11 | 3 | 1.6 | 1.6 | 0.00 | 0.00 | 0.00 | 39 | 1005.4 |
| 20260509055235 | 11 | 32 | 3.2 | 4.8 | 0.00 | 0.00 | 0.00 | 36 | 1005.5 |
| 20260509054732 | 11 | 22 | 0.0 | 0.0 | 0.00 | 0.00 | 0.00 | 34 | 1005.5 |
| 20260509054229 | 11 | 34 | 1.6 | 1.6 | 0.00 | 0.00 | 0.00 | 33 | 1005.5 |
| 20260509053727 | 11 | 56 | 1.6 | 3.2 | 0.00 | 0.00 | 0.00 | 33 | 1005.4 |
| 20260509053224 | 11 | 24 | 0.0 | 1.6 | 0.00 | 0.00 | 0.00 | 33 | 1005.4 |
| 20260509052722 | 11 | 192 | 3.2 | 4.8 | 0.00 | 0.00 | 0.00 | 32 | 1005.6 |
| 20260509052219 | 11 | 16 | 0.0 | 0.0 | 0.00 | 0.00 | 0.00 | 32 | 1005.4 |
| 20260509051717 | 11 | 26 | 1.6 | 1.6 | 0.00 | 0.00 | 0.00 | 32 | 1005.4 |
| 20260509051215 | 11 | 66 | 3.2 | 3.2 | 0.00 | 0.00 | 0.00 | 32 | 1005.4 |
| 20260509050711 | 11 | 53 | 1.6 | 3.2 | 0.00 | 0.00 | 0.00 | 32 | 1005.5 |
| 20260509050207 | 11 | 36 | 0.0 | 1.6 | 0.00 | 0.00 | 0.00 | 33 | 1005.7 |
| 20260509045705 | 11 | 35 | 0.0 | 1.6 | 0.00 | 0.00 | 0.00 | 32 | 1005.6 |
| 20260509045202 | 11 | 25 | 1.6 | 3.2 | 0.00 | 0.00 | 0.00 | 31 | 1005.8 |
| 20260509044659 | 11 | 344 | 3.2 | 3.2 | 0.00 | 0.00 | 0.00 | 30 | 1005.6 |
| 20260509044156 | 11 | 22 | 1.6 | 1.6 | 0.00 | 0.00 | 0.00 | 31 | 1005.9 |
| 20260509043653 | 11 | 16 | 1.6 | 1.6 | 0.00 | 0.00 | 0.00 | 31 | 1006.0 |
| 20260509043148 | 11 | 34 | 1.6 | 1.6 | 0.00 | 0.00 | 0.00 | 31 | 1005.8 |
| 20260509042645 | 11 | 39 | 1.6 | 1.6 | 0.00 | 0.00 | 0.00 | 31 | 1006.0 |
| 20260509042141 | 11 | 24 | 1.6 | 3.2 | 0.00 | 0.00 | 0.00 | 31 | 1005.8 |
| 20260509041638 | 11 | 346 | 1.6 | 1.6 | 0.00 | 0.00 | 0.00 | 31 | 1006.0 |
| 20260509041136 | 11 | 58 | 1.6 | 1.6 | 0.00 | 0.00 | 0.00 | 32 | 1006.1 |
| 20260509040634 | 10 | 33 | 1.6 | 1.6 | 0.00 | 0.00 | 0.00 | 33 | 1006.3 |
| 20260509040131 | 10 | 6 | 1.6 | 1.6 | 0.00 | 0.00 | 0.00 | 33 | 1005.9 |
| 20260509035627 | 10 | 7 | 0.0 | 0.0 | 0.00 | 0.00 | 0.00 | 33 | 1006.1 |
| 20260509035124 | 11 | 27 | 0.0 | 0.0 | 0.00 | 0.00 | 0.00 | 32 | 1006.2 |
| 20260509034622 | 11 | 21 | 1.6 | 1.6 | 0.00 | 0.00 | 0.00 | 31 | 1006.1 |
| 20260509034119 | 11 | 31 | 1.6 | 1.6 | 0.00 | 0.00 | 0.00 | 32 | 1006.3 |
| 20260509033616 | 11 | 109 | 1.6 | 1.6 | 0.00 | 0.00 | 0.00 | 31 | 1006.5 |
| 20260509033112 | 11 | 184 | 1.6 | 1.6 | 0.00 | 0.00 | 0.00 | 31 | 1006.3 |
| 20260509032610 | 11 | 178 | 3.2 | 3.2 | 0.00 | 0.00 | 0.00 | 31 | 1006.5 |
| 20260509032107 | 11 | 179 | 3.2 | 3.2 | 0.00 | 0.00 | 0.00 | 30 | 1006.6 |
| 20260509031605 | 11 | 178 | 3.2 | 3.2 | 0.00 | 0.00 | 0.00 | 31 | 1006.3 |
| 20260509031102 | 10 | 27 | 1.6 | 1.6 | 0.00 | 0.00 | 0.00 | 31 | 1006.7 |
| 20260509030600 | 10 | 11 | 1.6 | 1.6 | 0.00 | 0.00 | 0.00 | 32 | 1006.7 |
| 20260509030056 | 10 | 5 | 0.0 | 0.0 | 0.00 | 0.00 | 0.00 | 34 | 1006.8 |
| 20260509025552 | 10 | 11 | 0.0 | 0.0 | 0.00 | 0.00 | 0.00 | 35 | 1006.7 |
| 20260509025048 | 10 | 11 | 0.0 | 0.0 | 0.00 | 0.00 | 0.00 | 35 | 1006.9 |
| 20260509024544 | 10 | 11 | 0.0 | 0.0 | 0.00 | 0.00 | 0.00 | 35 | 1006.9 |
| 20260509024040 | 10 | 14 | 0.0 | 0.0 | 0.00 | 0.00 | 0.00 | 32 | 1007.1 |
| 20260509023538 | 11 | 15 | 0.0 | 0.0 | 0.00 | 0.00 | 0.00 | 32 | 1007.1 |
| 20260509023035 | 11 | 16 | 0.0 | 0.0 | 0.00 | 0.00 | 0.00 | 31 | 1007.3 |
| 20260509022531 | 11 | 34 | 0.0 | 0.0 | 0.00 | 0.00 | 0.00 | 31 | 1007.1 |
| 20260509022029 | 11 | 34 | 0.0 | 0.0 | 0.00 | 0.00 | 0.00 | 31 | 1007.1 |
| 20260509021526 | 11 | 33 | 1.6 | 0.0 | 0.00 | 0.00 | 0.00 | 31 | 1006.9 |
| 20260509021023 | 11 | 32 | 0.0 | 0.0 | 0.00 | 0.00 | 0.00 | 32 | 1006.9 |
| 20260509020521 | 11 | 32 | 0.0 | 0.0 | 0.00 | 0.00 | 0.00 | 31 | 1006.9 |
| 20260509020018 | 12 | 32 | 0.0 | 0.0 | 0.00 | 0.00 | 0.00 | 31 | 1007.0 |
| 20260509015517 | 12 | 14 | 0.0 | 1.6 | 0.00 | 0.00 | 0.00 | 28 | 1006.8 |
| 20260509015014 | 12 | 34 | 1.6 | 1.6 | 0.00 | 0.00 | 0.00 | 27 | 1006.9 |
| 20260509014511 | 12 | 46 | 1.6 | 1.6 | 0.00 | 0.00 | 0.00 | 28 | 1006.9 |
| 20260509014006 | 12 | 34 | 1.6 | 1.6 | 0.00 | 0.00 | 0.00 | 29 | 1006.9 |
| 20260509013504 | 12 | 34 | 0.0 | 0.0 | 0.00 | 0.00 | 0.00 | 28 | 1006.8 |
| 20260509012959 | 13 | 35 | 0.0 | 0.0 | 0.00 | 0.00 | 0.00 | 27 | 1006.8 |
| 20260509012456 | 13 | 40 | 1.6 | 1.6 | 0.00 | 0.00 | 0.00 | 26 | 1006.8 |
| 20260509011953 | 13 | 80 | 1.6 | 1.6 | 0.00 | 0.00 | 0.00 | 26 | 1007.0 |
| 20260509011450 | 13 | 34 | 1.6 | 1.6 | 0.00 | 0.00 | 0.00 | 26 | 1006.7 |
| 20260509010948 | 13 | 59 | 1.6 | 1.6 | 0.00 | 0.00 | 0.00 | 25 | 1006.8 |
| 20260509010446 | 13 | 38 | 1.6 | 1.6 | 0.00 | 0.00 | 0.00 | 25 | 1006.8 |
| 20260509005942 | 14 | 29 | 1.6 | 1.6 | 0.00 | 0.00 | 0.00 | 25 | 1006.7 |
| 20260509005441 | 13 | 61 | 1.6 | 1.6 | 0.00 | 0.00 | 0.00 | 24 | 1007.1 |
| 20260509004940 | 14 | 32 | 0.0 | 0.0 | 0.00 | 0.00 | 0.00 | 24 | 1006.9 |
| 20260509004437 | 14 | 33 | 0.0 | 0.0 | 0.00 | 0.00 | 0.00 | 24 | 1006.9 |
| 20260509003935 | 14 | 33 | 0.0 | 0.0 | 0.00 | 0.00 | 0.00 | 24 | 1007.0 |
| 20260509003433 | 14 | 30 | 0.0 | 0.0 | 0.00 | 0.00 | 0.00 | 24 | 1007.2 |
| 20260509002929 | 15 | 30 | 0.0 | 0.0 | 0.00 | 0.00 | 0.00 | 24 | 1007.0 |
| 20260509002427 | 15 | 22 | 0.0 | 0.0 | 0.00 | 0.00 | 0.00 | 24 | 1007.1 |
| 20260509001924 | 15 | 33 | 0.0 | 0.0 | 0.00 | 0.00 | 0.00 | 24 | 1007.0 |
| 20260509001420 | 15 | 24 | 1.6 | 1.6 | 0.00 | 0.00 | 0.00 | 24 | 1007.1 |
| 20260509000918 | 15 | 38 | 1.6 | 1.6 | 0.00 | 0.00 | 0.00 | 24 | 1007.2 |
| 20260509000417 | 15 | 34 | 0.0 | 0.0 | 0.00 | 0.00 | 0.00 | 24 | 1007.2 |
| 20260508235911 | 15 | 49 | 1.6 | 1.6 | 0.00 | 0.00 | 0.00 | 24 | 1007.1 |
| 20260508235409 | 15 | 83 | 1.6 | 1.6 | 0.00 | 0.00 | 0.00 | 25 | 1007.2 |
| 20260508234905 | 15 | 21 | 1.6 | 1.6 | 0.00 | 0.00 | 0.00 | 25 | 1007.3 |
| 20260508234402 | 15 | 17 | 1.6 | 1.6 | 0.00 | 0.00 | 0.00 | 24 | 1007.4 |
| 20260508233901 | 16 | 74 | 1.6 | 1.6 | 0.00 | 0.00 | 0.00 | 24 | 1007.5 |
| 20260508233400 | 16 | 21 | 1.6 | 1.6 | 0.00 | 0.00 | 0.00 | 25 | 1007.4 |
| 20260508232856 | 16 | 21 | 1.6 | 1.6 | 0.00 | 0.00 | 0.00 | 25 | 1007.6 |
| 20260508232352 | 16 | 19 | 1.6 | 1.6 | 0.00 | 0.00 | 0.00 | 25 | 1007.6 |
| 20260508231851 | 16 | 20 | 0.0 | 0.0 | 0.00 | 0.00 | 0.00 | 24 | 1007.4 |
| 20260508231347 | 16 | 43 | 1.6 | 3.2 | 0.00 | 0.00 | 0.00 | 26 | 1007.5 |
| 20260508230843 | 16 | 33 | 0.0 | 1.6 | 0.00 | 0.00 | 0.00 | 25 | 1007.3 |
| 20260508230340 | 16 | 24 | 0.0 | 0.0 | 0.00 | 0.00 | 0.00 | 25 | 1007.3 |
| 20260508225838 | 16 | 138 | 3.2 | 4.8 | 0.00 | 0.00 | 0.00 | 23 | 1007.4 |
| 20260508225334 | 16 | 52 | 1.6 | 1.6 | 0.00 | 0.00 | 0.00 | 24 | 1007.3 |
| 20260508224832 | 16 | 32 | 0.0 | 0.0 | 0.00 | 0.00 | 0.00 | 25 | 1007.4 |
| 20260508224329 | 16 | 11 | 0.0 | 0.0 | 0.00 | 0.00 | 0.00 | 24 | 1007.3 |
| 20260508223827 | 16 | 161 | 3.2 | 9.7 | 0.00 | 0.00 | 0.00 | 24 | 1007.3 |
| 20260508223324 | 16 | 17 | 1.6 | 1.6 | 0.00 | 0.00 | 0.00 | 24 | 1007.5 |
| 20260508222822 | 16 | 22 | 1.6 | 1.6 | 0.00 | 0.00 | 0.00 | 25 | 1007.3 |
| 20260508222318 | 16 | 9 | 4.8 | 4.8 | 0.00 | 0.00 | 0.00 | 24 | 1007.5 |
| 20260508221815 | 16 | 26 | 0.0 | 0.0 | 0.00 | 0.00 | 0.00 | 24 | 1007.6 |
| 20260508221310 | 16 | 15 | 1.6 | 1.6 | 0.00 | 0.00 | 0.00 | 25 | 1007.4 |
| 20260508220807 | 16 | 7 | 4.8 | 6.4 | 0.00 | 0.00 | 0.00 | 24 | 1007.5 |
| 20260508220303 | 16 | 34 | 1.6 | 1.6 | 0.00 | 0.00 | 0.00 | 25 | 1007.5 |
| 20260508215800 | 16 | 143 | 8.0 | 11.3 | 0.00 | 0.00 | 0.00 | 23 | 1007.6 |
| 20260508215257 | 16 | 171 | 3.2 | 4.8 | 0.00 | 0.00 | 0.00 | 24 | 1007.5 |
| 20260508214754 | 16 | 136 | 3.2 | 3.2 | 0.00 | 0.00 | 0.00 | 24 | 1007.5 |
| 20260508214251 | 16 | 149 | 3.2 | 3.2 | 0.00 | 0.00 | 0.00 | 24 | 1007.6 |
| 20260508213747 | 16 | 15 | 3.2 | 3.2 | 0.00 | 0.00 | 0.00 | 24 | 1007.5 |
| 20260508213244 | 16 | 147 | 6.4 | 6.4 | 0.00 | 0.00 | 0.00 | 24 | 1007.6 |
| 20260508212741 | 16 | 89 | 1.6 | 1.6 | 0.00 | 0.00 | 0.00 | 24 | 1007.7 |
| 20260508212237 | 17 | 17 | 3.2 | 3.2 | 0.00 | 0.00 | 0.00 | 26 | 1007.7 |
| 20260508211733 | 16 | 3 | 4.8 | 6.4 | 0.00 | 0.00 | 0.00 | 25 | 1007.7 |
| 20260508211229 | 17 | 16 | 8.0 | 9.7 | 0.00 | 0.00 | 0.00 | 23 | 1007.8 |
| 20260508210727 | 16 | 352 | 12.9 | 16.1 | 0.00 | 0.00 | 0.00 | 24 | 1007.4 |
| 20260508210223 | 17 | 177 | 4.8 | 6.4 | 0.00 | 0.00 | 0.00 | 25 | 1007.6 |
| 20260508205720 | 17 | 21 | 1.6 | 1.6 | 0.00 | 0.00 | 0.00 | 25 | 1007.5 |
| 20260508205217 | 16 | 9 | 3.2 | 3.2 | 0.00 | 0.00 | 0.00 | 24 | 1007.7 |
| 20260508204713 | 17 | 38 | 0.0 | 0.0 | 0.00 | 0.00 | 0.00 | 23 | 1007.9 |
| 20260508204209 | 17 | 18 | 1.6 | 3.2 | 0.00 | 0.00 | 0.00 | 27 | 1007.9 |
| 20260508203706 | 17 | 356 | 1.6 | 3.2 | 0.00 | 0.00 | 0.00 | 27 | 1008.0 |
| 20260508203202 | 17 | 21 | 0.0 | 0.0 | 0.00 | 0.00 | 0.00 | 27 | 1008.0 |
| 20260508202658 | 17 | 3 | 1.6 | 3.2 | 0.00 | 0.00 | 0.00 | 26 | 1008.0 |
| 20260508202155 | 17 | 17 | 3.2 | 4.8 | 0.00 | 0.00 | 0.00 | 24 | 1008.0 |
| 20260508201652 | 17 | 10 | 3.2 | 3.2 | 0.00 | 0.00 | 0.00 | 27 | 1008.0 |
| 20260508201149 | 17 | 17 | 3.2 | 6.4 | 0.00 | 0.00 | 0.00 | 28 | 1008.1 |
| 20260508200646 | 17 | 4 | 1.6 | 3.2 | 0.00 | 0.00 | 0.00 | 27 | 1008.3 |
| 20260508200142 | 17 | 112 | 1.6 | 3.2 | 0.00 | 0.00 | 0.00 | 25 | 1008.3 |
| 20260508195638 | 17 | 8 | 4.8 | 6.4 | 0.00 | 0.00 | 0.00 | 24 | 1008.2 |
| 20260508195135 | 17 | 5 | 3.2 | 4.8 | 0.00 | 0.00 | 0.00 | 25 | 1008.5 |
| 20260508194631 | 17 | 8 | 6.4 | 6.4 | 0.00 | 0.00 | 0.00 | 24 | 1008.5 |
| 20260508194128 | 17 | 30 | 1.6 | 3.2 | 0.00 | 0.00 | 0.00 | 26 | 1008.5 |
| 20260508193625 | 17 | 12 | 4.8 | 4.8 | 0.00 | 0.00 | 0.00 | 24 | 1008.7 |
| 20260508193122 | 17 | 20 | 1.6 | 1.6 | 0.00 | 0.00 | 0.00 | 25 | 1008.6 |
| 20260508192618 | 17 | 14 | 1.6 | 1.6 | 0.00 | 0.00 | 0.00 | 25 | 1008.8 |
| 20260508192116 | 17 | 38 | 4.8 | 4.8 | 0.00 | 0.00 | 0.00 | 26 | 1008.8 |
| 20260508191613 | 17 | 151 | 8.0 | 9.7 | 0.00 | 0.00 | 0.00 | 25 | 1008.8 |
| 20260508191109 | 17 | 10 | 3.2 | 4.8 | 0.00 | 0.00 | 0.00 | 24 | 1008.9 |
| 20260508190607 | 17 | 154 | 3.2 | 3.2 | 0.00 | 0.00 | 0.00 | 24 | 1008.6 |
| 20260508190103 | 17 | 166 | 8.0 | 6.4 | 0.00 | 0.00 | 0.00 | 23 | 1008.7 |
| 20260508185600 | 17 | 347 | 6.4 | 11.3 | 0.00 | 0.00 | 0.00 | 24 | 1008.8 |
| 20260508185057 | 18 | 239 | 3.2 | 3.2 | 0.00 | 0.00 | 0.00 | 25 | 1009.0 |
| 20260508184555 | 17 | 17 | 0.0 | 1.6 | 0.00 | 0.00 | 0.00 | 28 | 1008.9 |
| 20260508184051 | 17 | 39 | 1.6 | 1.6 | 0.00 | 0.00 | 0.00 | 24 | 1009.1 |
| 20260508183548 | 17 | 153 | 4.8 | 6.4 | 0.00 | 0.00 | 0.00 | 23 | 1009.3 |
| 20260508183044 | 17 | 357 | 3.2 | 4.8 | 0.00 | 0.00 | 0.00 | 25 | 1009.3 |
| 20260508182541 | 17 | 23 | 0.0 | 0.0 | 0.00 | 0.00 | 0.00 | 25 | 1009.1 |
| 20260508182038 | 18 | 122 | 1.6 | 3.2 | 0.00 | 0.00 | 0.00 | 25 | 1009.2 |
| 20260508181538 | 17 | 11 | 3.2 | 1.6 | 0.00 | 0.00 | 0.00 | 25 | 1009.4 |
| 20260508181036 | 17 | 15 | 0.0 | 0.0 | 0.00 | 0.00 | 0.00 | 32 | 1009.4 |
| 20260508180532 | 17 | 155 | 4.8 | 6.4 | 0.00 | 0.00 | 0.00 | 27 | 1009.3 |
| 20260508180029 | 17 | 52 | 4.8 | 4.8 | 0.00 | 0.00 | 0.00 | 27 | 1009.4 |
| 20260508175525 | 17 | 55 | 3.2 | 4.8 | 0.00 | 0.00 | 0.00 | 28 | 1009.5 |
| 20260508175023 | 17 | 42 | 1.6 | 1.6 | 0.00 | 0.00 | 0.00 | 26 | 1009.6 |
| 20260508174520 | 17 | 5 | 1.6 | 1.6 | 0.00 | 0.00 | 0.00 | 31 | 1010.0 |
| 20260508174017 | 17 | 38 | 1.6 | 3.2 | 0.00 | 0.00 | 0.00 | 26 | 1009.8 |
| 20260508173514 | 17 | 140 | 6.4 | 9.7 | 0.00 | 0.00 | 0.00 | 27 | 1010.1 |
| 20260508173010 | 17 | 11 | 1.6 | 3.2 | 0.00 | 0.00 | 0.00 | 27 | 1010.1 |
| 20260508172507 | 17 | 0 | 8.0 | 9.7 | 0.00 | 0.00 | 0.00 | 28 | 1009.9 |
| 20260508172003 | 17 | 1 | 1.6 | 3.2 | 0.00 | 0.00 | 0.00 | 32 | 1010.1 |
| 20260508171500 | 17 | 12 | 4.8 | 4.8 | 0.00 | 0.00 | 0.00 | 28 | 1010.3 |
| 20260508170956 | 17 | 150 | 3.2 | 4.8 | 0.00 | 0.00 | 0.00 | 27 | 1010.2 |
| 20260508170454 | 16 | 94 | 3.2 | 3.2 | 0.00 | 0.00 | 0.00 | 27 | 1010.3 |
| 20260508165950 | 16 | 12 | 1.6 | 1.6 | 0.00 | 0.00 | 0.00 | 32 | 1010.6 |
| 20260508165449 | 17 | 11 | 3.2 | 4.8 | 0.00 | 0.00 | 0.00 | 31 | 1010.3 |
| 20260508164944 | 17 | 2 | 1.6 | 3.2 | 0.00 | 0.00 | 0.00 | 27 | 1010.8 |
| 20260508164441 | 16 | 69 | 1.6 | 1.6 | 0.00 | 0.00 | 0.00 | 34 | 1010.7 |
| 20260508163938 | 16 | 9 | 4.8 | 4.8 | 0.00 | 0.00 | 0.00 | 32 | 1010.7 |
| 20260508163436 | 16 | 4 | 8.0 | 9.7 | 0.00 | 0.00 | 0.00 | 28 | 1010.8 |
| 20260508162932 | 16 | 163 | 8.0 | 9.7 | 0.00 | 0.00 | 0.00 | 28 | 1011.1 |
| 20260508162430 | 16 | 123 | 3.2 | 3.2 | 0.00 | 0.00 | 0.00 | 29 | 1011.1 |
| 20260508161926 | 16 | 87 | 3.2 | 4.8 | 0.00 | 0.00 | 0.00 | 29 | 1010.8 |
| 20260508161423 | 16 | 16 | 1.6 | 1.6 | 0.00 | 0.00 | 0.00 | 31 | 1010.8 |
| 20260508160921 | 16 | 31 | 1.6 | 3.2 | 0.00 | 0.00 | 0.00 | 29 | 1011.0 |
| 20260508160420 | 16 | 11 | 1.6 | 1.6 | 0.00 | 0.00 | 0.00 | 31 | 1011.1 |
| 20260508155915 | 16 | 48 | 3.2 | 3.2 | 0.00 | 0.00 | 0.00 | 29 | 1011.1 |
| 20260508155413 | 16 | 16 | 0.0 | 0.0 | 0.00 | 0.00 | 0.00 | 27 | 1011.0 |
| 20260508154909 | 16 | 46 | 1.6 | 1.6 | 0.00 | 0.00 | 0.00 | 32 | 1011.1 |
| 20260508154407 | 16 | 46 | 3.2 | 3.2 | 0.00 | 0.00 | 0.00 | 34 | 1011.2 |
| 20260508153903 | 15 | 23 | 0.0 | 0.0 | 0.00 | 0.00 | 0.00 | 39 | 1011.1 |
| 20260508153401 | 15 | 155 | 4.8 | 4.8 | 0.00 | 0.00 | 0.00 | 37 | 1011.1 |
| 20260508152856 | 16 | 98 | 4.8 | 4.8 | 0.00 | 0.00 | 0.00 | 34 | 1011.5 |
| 20260508152353 | 15 | 20 | 1.6 | 1.6 | 0.00 | 0.00 | 0.00 | 35 | 1011.2 |
| 20260508151850 | 15 | 13 | 1.6 | 1.6 | 0.00 | 0.00 | 0.00 | 35 | 1011.3 |
| 20260508151347 | 15 | 60 | 3.2 | 3.2 | 0.00 | 0.00 | 0.00 | 40 | 1011.4 |
| 20260508150843 | 15 | 135 | 4.8 | 4.8 | 0.00 | 0.00 | 0.00 | 33 | 1011.5 |
| 20260508150340 | 15 | 359 | 4.8 | 4.8 | 0.00 | 0.00 | 0.00 | 35 | 1011.6 |
| 20260508145836 | 15 | 29 | 1.6 | 1.6 | 0.00 | 0.00 | 0.00 | 37 | 1011.4 |
| 20260508145332 | 15 | 92 | 0.0 | 0.0 | 0.00 | 0.00 | 0.00 | 36 | 1011.7 |
| 20260508144829 | 15 | 32 | 0.0 | 1.6 | 0.00 | 0.00 | 0.00 | 38 | 1011.6 |
| 20260508144327 | 15 | 117 | 4.8 | 4.8 | 0.00 | 0.00 | 0.00 | 40 | 1011.6 |
| 20260508143824 | 15 | 60 | 3.2 | 3.2 | 0.00 | 0.00 | 0.00 | 40 | 1011.6 |
| 20260508143321 | 14 | 42 | 1.6 | 3.2 | 0.00 | 0.00 | 0.00 | 42 | 1011.4 |
| 20260508142818 | 13 | 32 | 1.6 | 1.6 | 0.00 | 0.00 | 0.00 | 46 | 1011.6 |
| 20260508142315 | 14 | 119 | 4.8 | 4.8 | 0.00 | 0.00 | 0.00 | 43 | 1011.8 |
| 20260508141811 | 14 | 27 | 3.2 | 3.2 | 0.00 | 0.00 | 0.00 | 44 | 1011.8 |
| 20260508141308 | 13 | 37 | 1.6 | 1.6 | 0.00 | 0.00 | 0.00 | 50 | 1012.0 |
| 20260508140806 | 13 | 31 | 3.2 | 3.2 | 0.00 | 0.00 | 0.00 | 47 | 1011.9 |
| 20260508140302 | 14 | 173 | 3.2 | 3.2 | 0.00 | 0.00 | 0.00 | 48 | 1011.7 |
| 20260508135758 | 13 | 61 | 1.6 | 3.2 | 0.00 | 0.00 | 0.00 | 50 | 1011.9 |
| 20260508135254 | 13 | 52 | 1.6 | 3.2 | 0.00 | 0.00 | 0.00 | 50 | 1011.9 |
| 20260508134750 | 13 | 31 | 0.0 | 0.0 | 0.00 | 0.00 | 0.00 | 51 | 1011.8 |
| 20260508134248 | 13 | 32 | 1.6 | 0.0 | 0.00 | 0.00 | 0.00 | 52 | 1011.8 |
| 20260508133744 | 12 | 28 | 0.0 | 0.0 | 0.00 | 0.00 | 0.00 | 53 | 1011.6 |
| 20260508133242 | 12 | 39 | 0.0 | 0.0 | 0.00 | 0.00 | 0.00 | 54 | 1011.8 |
| 20260508132739 | 12 | 46 | 1.6 | 1.6 | 0.00 | 0.00 | 0.00 | 53 | 1011.9 |
| 20260508132237 | 12 | 49 | 3.2 | 3.2 | 0.00 | 0.00 | 0.00 | 53 | 1011.9 |
| 20260508131732 | 12 | 36 | 1.6 | 1.6 | 0.00 | 0.00 | 0.00 | 54 | 1011.8 |
| 20260508131229 | 12 | 43 | 3.2 | 3.2 | 0.00 | 0.00 | 0.00 | 56 | 1012.0 |
| 20260508130725 | 11 | 39 | 1.6 | 1.6 | 0.00 | 0.00 | 0.00 | 58 | 1011.9 |
| 20260508130223 | 11 | 28 | 0.0 | 0.0 | 0.00 | 0.00 | 0.00 | 58 | 1011.8 |
| 20260508125718 | 12 | 56 | 1.6 | 1.6 | 0.00 | 0.00 | 0.00 | 56 | 1011.9 |
| 20260508125215 | 11 | 41 | 1.6 | 1.6 | 0.00 | 0.00 | 0.00 | 60 | 1012.0 |
| 20260508124713 | 10 | 37 | 1.6 | 1.6 | 0.00 | 0.00 | 0.00 | 59 | 1012.0 |
| 20260508124210 | 10 | 34 | 1.6 | 1.6 | 0.00 | 0.00 | 0.00 | 61 | 1012.1 |
| 20260508123708 | 10 | 36 | 1.6 | 1.6 | 0.00 | 0.00 | 0.00 | 61 | 1012.2 |
| 20260508123206 | 10 | 32 | 1.6 | 1.6 | 0.00 | 0.00 | 0.00 | 60 | 1012.0 |
| 20260508122701 | 10 | 36 | 0.0 | 0.0 | 0.00 | 0.00 | 0.00 | 60 | 1012.0 |
| 20260508122159 | 10 | 34 | 0.0 | 0.0 | 0.00 | 0.00 | 0.00 | 61 | 1012.0 |
| 20260508121656 | 10 | 34 | 0.0 | 0.0 | 0.00 | 0.00 | 0.00 | 60 | 1011.7 |
| 20260508121154 | 8 | 32 | 0.0 | 0.0 | 0.00 | 0.00 | 0.00 | 62 | 1011.7 |
| 20260508120651 | 8 | 31 | 1.6 | 1.6 | 0.00 | 0.00 | 0.00 | 62 | 1011.7 |
| 20260508120150 | 8 | 21 | 0.0 | 0.0 | 0.00 | 0.00 | 0.00 | 65 | 1011.8 |
| 20260508115647 | 7 | 19 | 1.6 | 1.6 | 0.00 | 0.00 | 0.00 | 66 | 1011.8 |
| 20260508115144 | 6 | 34 | 1.6 | 1.6 | 0.00 | 0.00 | 0.00 | 68 | 1011.7 |
| 20260508114641 | 6 | 33 | 1.6 | 1.6 | 0.00 | 0.00 | 0.00 | 69 | 1011.4 |
| 20260508114137 | 6 | 52 | 1.6 | 1.6 | 0.00 | 0.00 | 0.00 | 71 | 1011.5 |
| 20260508113634 | 5 | 39 | 1.6 | 1.6 | 0.00 | 0.00 | 0.00 | 72 | 1011.4 |
| 20260508113133 | 5 | 140 | 3.2 | 3.2 | 0.00 | 0.00 | 0.00 | 74 | 1011.5 |
| 20260508112628 | 4 | 65 | 3.2 | 3.2 | 0.00 | 0.00 | 0.00 | 76 | 1011.4 |
| 20260508112125 | 3 | 37 | 1.6 | 1.6 | 0.00 | 0.00 | 0.00 | 81 | 1011.2 |
| 20260508111622 | 2 | 36 | 0.0 | 0.0 | 0.00 | 0.00 | 0.00 | 85 | 1011.3 |
| 20260508111119 | 2 | 37 | 0.0 | 0.0 | 0.00 | 0.00 | 0.00 | 87 | 1011.4 |
| 20260508110617 | 1 | 37 | 0.0 | 0.0 | 0.00 | 0.00 | 0.00 | 88 | 1011.4 |
| 20260508110114 | 1 | 37 | 0.0 | 0.0 | 0.00 | 0.00 | 0.00 | 88 | 1011.3 |
| 20260508105614 | 1 | 37 | 0.0 | 0.0 | 0.00 | 0.00 | 0.00 | 88 | 1011.2 |
| 20260508105111 | 1 | 37 | 0.0 | 0.0 | 0.00 | 0.00 | 0.00 | 88 | 1011.3 |
| 20260508104609 | 1 | 37 | 0.0 | 0.0 | 0.00 | 0.00 | 0.00 | 89 | 1011.2 |
| 20260508104105 | 1 | 37 | 0.0 | 0.0 | 0.00 | 0.00 | 0.00 | 88 | 1011.1 |
| 20260508103602 | 1 | 37 | 0.0 | 0.0 | 0.00 | 0.00 | 0.00 | 88 | 1011.1 |
| 20260508103100 | 1 | 37 | 0.0 | 0.0 | 0.00 | 0.00 | 0.00 | 88 | 1011.2 |
| 20260508102557 | 1 | 37 | 0.0 | 0.0 | 0.00 | 0.00 | 0.00 | 87 | 1011.0 |
| 20260508102055 | 1 | 37 | 0.0 | 0.0 | 0.00 | 0.00 | 0.00 | 87 | 1011.0 |
| 20260508101552 | 1 | 37 | 0.0 | 0.0 | 0.00 | 0.00 | 0.00 | 88 | 1011.0 |
| 20260508101049 | 1 | 37 | 0.0 | 0.0 | 0.00 | 0.00 | 0.00 | 88 | 1011.2 |
| 20260508100547 | 1 | 37 | 0.0 | 0.0 | 0.00 | 0.00 | 0.00 | 88 | 1011.1 |
| 20260508100043 | 1 | 37 | 0.0 | 0.0 | 0.00 | 0.00 | 0.00 | 88 | 1011.1 |
| 20260508095541 | 1 | 37 | 0.0 | 0.0 | 0.00 | 0.00 | 0.00 | 87 | 1011.2 |
| 20260508095037 | 1 | 37 | 0.0 | 0.0 | 0.00 | 0.00 | 0.00 | 87 | 1011.2 |
| 20260508094535 | 1 | 37 | 0.0 | 0.0 | 0.00 | 0.00 | 0.00 | 85 | 1011.0 |
| 20260508094032 | 1 | 37 | 0.0 | 0.0 | 0.00 | 0.00 | 0.00 | 85 | 1011.3 |
| 20260508093528 | 1 | 37 | 0.0 | 0.0 | 0.00 | 0.00 | 0.00 | 85 | 1011.2 |
| 20260508093026 | 1 | 37 | 0.0 | 0.0 | 0.00 | 0.00 | 0.00 | 85 | 1011.1 |
| 20260508092523 | 1 | 37 | 0.0 | 0.0 | 0.00 | 0.00 | 0.00 | 84 | 1011.3 |
| 20260508092022 | 1 | 37 | 0.0 | 0.0 | 0.00 | 0.00 | 0.00 | 84 | 1011.4 |
| 20260508091519 | 2 | 37 | 0.0 | 0.0 | 0.00 | 0.00 | 0.00 | 84 | 1011.3 |
| 20260508091015 | 1 | 37 | 0.0 | 0.0 | 0.00 | 0.00 | 0.00 | 84 | 1011.2 |
| 20260508090514 | 2 | 37 | 0.0 | 0.0 | 0.00 | 0.00 | 0.00 | 83 | 1011.4 |
| 20260508090010 | 2 | 37 | 0.0 | 0.0 | 0.00 | 0.00 | 0.00 | 83 | 1011.4 |
| 20260508085507 | 2 | 37 | 0.0 | 0.0 | 0.00 | 0.00 | 0.00 | 82 | 1011.3 |
| 20260508085004 | 2 | 37 | 0.0 | 0.0 | 0.00 | 0.00 | 0.00 | 81 | 1011.2 |
| 20260508084500 | 2 | 37 | 0.0 | 0.0 | 0.00 | 0.00 | 0.00 | 81 | 1011.3 |
| 20260508083958 | 2 | 37 | 0.0 | 0.0 | 0.00 | 0.00 | 0.00 | 80 | 1011.5 |
| 20260508083455 | 2 | 37 | 0.0 | 0.0 | 0.00 | 0.00 | 0.00 | 79 | 1011.2 |
| 20260508082950 | 2 | 37 | 0.0 | 0.0 | 0.00 | 0.00 | 0.00 | 78 | 1011.3 |
| 20260508082447 | 3 | 37 | 0.0 | 0.0 | 0.00 | 0.00 | 0.00 | 77 | 1011.3 |
| 20260508081945 | 3 | 37 | 0.0 | 0.0 | 0.00 | 0.00 | 0.00 | 76 | 1011.4 |
| 20260508081442 | 3 | 37 | 0.0 | 0.0 | 0.00 | 0.00 | 0.00 | 75 | 1011.5 |
| 20260508080938 | 4 | 37 | 0.0 | 0.0 | 0.00 | 0.00 | 0.00 | 72 | 1011.3 |
| 20260508080437 | 5 | 37 | 0.0 | 0.0 | 0.00 | 0.00 | 0.00 | 67 | 1011.3 |
| 20260508075933 | 5 | 40 | 1.6 | 1.6 | 0.00 | 0.00 | 0.00 | 67 | 1011.4 |
| 20260508075430 | 5 | 33 | 0.0 | 0.0 | 0.00 | 0.00 | 0.00 | 67 | 1011.4 |
| 20260508074927 | 5 | 34 | 0.0 | 0.0 | 0.00 | 0.00 | 0.00 | 67 | 1011.4 |
| 20260508074425 | 5 | 37 | 0.0 | 1.6 | 0.00 | 0.00 | 0.00 | 67 | 1011.4 |
| 20260508073921 | 5 | 27 | 0.0 | 0.0 | 0.00 | 0.00 | 0.00 | 69 | 1011.4 |
| 20260508073419 | 5 | 27 | 0.0 | 0.0 | 0.00 | 0.00 | 0.00 | 68 | 1011.4 |
| 20260508072916 | 5 | 27 | 0.0 | 0.0 | 0.00 | 0.00 | 0.00 | 67 | 1011.5 |
| 20260508072412 | 5 | 26 | 0.0 | 0.0 | 0.00 | 0.00 | 0.00 | 67 | 1011.6 |
| 20260508071909 | 5 | 33 | 0.0 | 0.0 | 0.00 | 0.00 | 0.00 | 67 | 1011.7 |
| 20260508071408 | 5 | 32 | 0.0 | 0.0 | 0.00 | 0.00 | 0.00 | 68 | 1011.7 |
| 20260508070905 | 5 | 21 | 0.0 | 0.0 | 0.00 | 0.00 | 0.00 | 69 | 1011.8 |
| 20260508070403 | 4 | 18 | 0.0 | 0.0 | 0.00 | 0.00 | 0.00 | 71 | 1011.8 |
| 20260508065900 | 4 | 20 | 0.0 | 0.0 | 0.00 | 0.00 | 0.00 | 72 | 1011.9 |
| 20260508065358 | 4 | 20 | 0.0 | 0.0 | 0.00 | 0.00 | 0.00 | 72 | 1011.9 |
| 20260508064856 | 4 | 20 | 0.0 | 0.0 | 0.00 | 0.00 | 0.00 | 72 | 1012.0 |